Hourly Data Report for October 30, 2015

All times are specified in Local Standard Time (LST). Add 1 hour to adjust for Daylight Saving Time where and when it is observed.

OTTAWA INTL A
ONTARIO

45°19'00.000" N
75°40'00.000" W
114.90 m
6106001
71628
YOW

Download Data

Hourly Data (October 2015)
Hourly Data Report for October 30, 2015
Temp Definition
°C
Dew Point Temp Definition
°C
Rel Hum Definition
%
Wind Dir Definition
10's deg

Wind Spd Definition
km/h
Visibility Definition
km
Stn Press Definition
kPa
Hmdx Definition


Wind Chill Definition


Weather Definition


TIME
00:00 Legend Double Dagger 7.8 3.1 72 23 32 16.1 98.51     Rain
01:00 Legend Double Dagger 6.9 5.2 89 26 34 9.7 98.68     Rain,Fog
02:00 Legend Double Dagger 5.5 2.0 78 29 45 24.1 98.85     LegendNANA
03:00 Legend Double Dagger 4.1 -0.3 73 30 41 24.1 99.07     LegendNANA
04:00 Legend Double Dagger 3.3 -0.3 77 29 23 24.1 99.23     Mainly Clear
05:00 Legend Double Dagger 3.4 -0.4 76 28 34 24.1 99.43     LegendNANA
06:00 Legend Double Dagger 2.5 -2.0 72 29 32 24.1 99.58     LegendNANA
07:00 Legend Double Dagger 2.6 -2.7 68 29 21 24.1 99.72     Mainly Clear
08:00 Legend Double Dagger 3.7 -2.3 65 29 31 24.1 99.88     LegendNANA
09:00 Legend Double Dagger 3.6 -1.8 68 30 23 24.1 100.02     LegendNANA
10:00 Legend Double Dagger 4.0 -3.3 59 30 27 24.1 100.07     Mostly Cloudy
11:00 Legend Double Dagger 5.3 -3.5 53 27 23 24.1 100.14     LegendNANA
12:00 Legend Double Dagger 6.0 -2.9 53 28 18 24.1 100.15     LegendNANA
13:00 Legend Double Dagger 7.1 -3.7 46 29 23 24.1 100.16     Mainly Clear
14:00 Legend Double Dagger 7.1 -4.3 44 28 27 24.1 100.20     LegendNANA
15:00 Legend Double Dagger 7.1 -3.5 47 29 17 24.1 100.24     LegendNANA
16:00 Legend Double Dagger 6.3 -3.4 50 26 15 24.1 100.31     Clear
17:00 Legend Double Dagger 3.5 -3.3 61 26 13 24.1 100.39     LegendNANA
18:00 Legend Double Dagger 3.0 -3.6 62 29 10 24.1 100.47     LegendNANA
19:00 Legend Double Dagger 1.6 -3.7 68 30 11 24.1 100.51     Clear
20:00 Legend Double Dagger 1.4 -3.9 68 28 13 24.1 100.56     LegendNANA
21:00 Legend Double Dagger -0.1 -4.0 75 23 5 24.1 100.62   -2 LegendNANA
22:00 Legend Double Dagger -1.6 -4.4 81 20 4 24.1 100.60   -3 Clear
23:00 Legend Double Dagger -2.0 -4.4 84 22 4 24.1 100.60   -3 LegendNANA

Notes on Data Quality.

Legend

  • E = Estimated
  • M = Missing
  • NA = Not Available
  • ‡ = Partner data that is not subject to review by the National Climate Archives
Date modified: